Location: Notre Dame Regional High School Observatory
(37.3056°N, 89.6097°W)
Time: 14:55:52
(UTC-05:00)

Okean 2 Rocket - Visible Passes

Search period start: 27 May 2015 00:00
Search period end: 06 June 2015 00:00
Orbit: 617 x 643 km, 82.5° (Epoch: 26 May)

Date Brightness Start Highest point End Pass type
(mag) Time Alt. Az. Time Alt. Az. Time Alt. Az.
27 May 5.7 03:31:34 10° ESE 03:34:07 16° E 03:36:51 10° NE visible
27 May 3.8 05:07:52 10° SSW 05:11:57 37° WNW 05:16:01 10° N visible
28 May 4.6 03:50:51 10° SSE 03:54:45 32° E 03:58:41 10° NNE visible
29 May 3.3 04:11:39 14° S 04:15:27 72° E 04:19:49 10° NNE visible
30 May 5.9 02:57:26 10° ESE 02:58:34 11° E 03:00:00 10° ENE visible
30 May 3.3 04:32:44 15° SSW 04:36:15 52° W 04:40:33 10° N visible
31 May 5.1 03:16:22 13° SE 03:19:10 23° E 03:22:42 10° NE visible
31 May 4.3 04:53:46 11° SW 04:57:13 25° WNW 05:00:48 10° NNW visible
01 Jun 3.8 03:37:22 23° SSE 03:39:50 50° E 03:44:06 10° NNE visible
02 Jun 3.0 03:58:21 28° SSW 04:00:35 75° W 04:04:59 10° N visible
03 Jun 5.4 02:41:55 14° ESE 02:43:36 17° E 02:46:31 10° NE visible
03 Jun 3.9 04:19:18 22° SW 04:21:28 34° WNW 04:25:28 10° NNW visible
04 Jun 4.3 03:02:50 28° SE 03:04:14 35° E 03:08:15 10° NNE visible
04 Jun 4.8 04:40:14 12° WSW 04:42:32 17° WNW 04:45:19 10° NNW visible
05 Jun 3.1 03:23:45 47° S 03:24:56 78° E 03:29:21 10° N visible
